This is the latest recevied weather packets stored in our database for station/object KC0SIQ-13. If no packets are shown the sender has not sent any weather packets the latest 10 day(s).
| Time | Temp. | Humidity | Pressure | Rain* | Wind** | Luminosity | Snow |
|---|---|---|---|---|---|---|---|
| 1777827552 | 23.33° C | 22% | 1012.8 hPa | 0 mm | - | 641 W/m² | - |
| 1777827250 | 21.67° C | 21% | 1012.8 hPa | 0 mm | - | 706 W/m² | - |
| 1777826945 | 22.22° C | 23% | 1013 hPa | 0 mm | - | 762 W/m² | - |
| 1777826643 | 22.22° C | 22% | 1012.8 hPa | 0 mm | - | 144 W/m² | - |
| 1777826339 | 21.67° C | 23% | 1013.2 hPa | 0 mm | - | 145 W/m² | - |
| 1777826037 | 21.11° C | 24% | 1013.1 hPa | 0 mm | - | 146 W/m² | - |
| 1777825734 | 20.56° C | 25% | 1013.1 hPa | 0 mm | - | 145 W/m² | - |
| 1777825432 | 20° C | 23% | 1013.3 hPa | 0 mm | - | 139 W/m² | - |
| 1777825128 | 20° C | 24% | 1013.3 hPa | 0 mm | - | 129 W/m² | - |
| 1777824824 | 19.44° C | 27% | 1013.2 hPa | 0 mm | - | 124 W/m² | - |
| 1777824521 | 18.89° C | 26% | 1013.4 hPa | 0 mm | - | 121 W/m² | - |
| 1777824218 | 18.89° C | 27% | 1013.4 hPa | 0 mm | - | 119 W/m² | - |
| 1777823913 | 18.89° C | 27% | 1013.4 hPa | 0 mm | - | 123 W/m² | - |
| 1777823611 | 18.33° C | 28% | 1013.5 hPa | 0 mm | - | 122 W/m² | - |
| 1777823308 | 17.78° C | 28% | 1013.4 hPa | 0 mm | - | 115 W/m² | - |
| 1777823006 | 17.78° C | 28% | 1013.4 hPa | 0 mm | - | 109 W/m² | - |
| 1777822703 | 17.78° C | 28% | 1013.4 hPa | 0 mm | - | 98 W/m² | - |
| 1777822401 | 17.22° C | 30% | 1013.7 hPa | 0 mm | - | 86 W/m² | - |
| 1777822098 | 16.67° C | 31% | 1013.4 hPa | 0 mm | - | 79 W/m² | - |
| 1777821796 | 16.67° C | 32% | 1013.5 hPa | 0 mm | - | 81 W/m² | - |
| 1777821493 | 16.11° C | 33% | 1013.7 hPa | 0 mm | - | 71 W/m² | - |
| 1777821191 | 15.56° C | 33% | 1013.4 hPa | 0 mm | - | 64 W/m² | - |
| 1777820888 | 15.56° C | 33% | 1013.5 hPa | 0 mm | - | 58 W/m² | - |
| 1777820583 | 15.56° C | 35% | 1013.8 hPa | 0 mm | - | 58 W/m² | - |
| 1777820280 | 16.11° C | 34% | 1013.7 hPa | 0 mm | - | 64 W/m² | - |
* Rain latest hour (hover to see other rain measurements)
** Current wind speed in m/s (hover to see current wind gust speed)